Weather History for Pampa, TX

Change the Weather History Date:

Wednesday, February 20, 2013

  Actual Average Record
Temperature  
Mean Temperature 36 °F -  
Max Temperature 39 °F 55 °F 76 °F (1986)
Min Temperature 32 °F 28 °F 8 °F (1978)
Degree Days  
Heating Degree Days 30    
Moisture  
Dew Point 32 °F    
Average Humidity 90    
Maximum Humidity 100    
Minimum Humidity 45    
Precipitation  
Precipitation 0.00 in - - ()
Sea Level Pressure  
Sea Level Pressure 29.83 in    
Wind  
Wind Speed 26 mph (SSE)    
Max Wind Speed 39 mph    
Max Gust Speed 48 mph    
Visibility 5 miles    
Events Fog , Rain , Snow , Thunderstorm    
Averages and records for this station are not official NWS values.
T = Trace of Precipitation, MM = Missing Value Source: NWS Daily Summary

Daily Weather History Graph

Daily Weather History Graph

Search for Another Location

Airport:

Trip Planner

Search our weather history database for the weather conditions in past years. The results will help you decide how hot, cold, wet, or windy it might be!

Date:

Astronomy

Feb. 20, 2013 Rise Set
Actual Time 7:24 AM CST 6:31 PM CST
Civil Twilight 6:58 AM CST 6:57 PM CST
Nautical Twilight 6:29 AM CST 7:26 PM CST
Astronomical Twilight 5:59 AM CST 7:56 PM CST
Moon 2:00 PM CST (2/20) 3:40 AM CST (2/20)
Length of Visible Light 11h 58m
Length of Day
11h 06m
Waxing Gibbous, 76% of the Moon is Illuminated
Feb 20
Waxing Gibbous
Feb 25
Full
Mar 4
Last Quarter
Mar 11
New
Mar 19
First Quarter

Hourly Weather History & Observations

Time (CST) Temp. Windchill Dew Point Humidity Pressure Visibility Wind Dir Wind Speed Gust Speed Precip Events Conditions
12:15 AM 39.2 °F 28.0 °F 19.4 °F 45% 29.96 in 10.0 mi SSE 26.5 mph 35.7 mph N/A   Overcast
12:35 AM 39.2 °F 27.6 °F 19.4 °F 45% 29.97 in 10.0 mi SSE 28.8 mph 33.4 mph N/A   Overcast
12:55 AM 39.2 °F 28.3 °F 21.2 °F 49% 29.96 in 10.0 mi SSE 25.3 mph 33.4 mph N/A   Overcast
1:15 AM 39.2 °F 28.7 °F 21.2 °F 49% 29.96 in 10.0 mi SSE 23.0 mph 32.2 mph N/A   Overcast
1:35 AM 39.2 °F 28.5 °F 21.2 °F 49% 29.96 in 10.0 mi SSE 24.2 mph 31.1 mph N/A   Overcast
1:55 AM 39.2 °F 29.3 °F 23.0 °F 52% 29.96 in 10.0 mi SSE 20.7 mph 29.9 mph N/A   Overcast
2:15 AM 39.2 °F 29.6 °F 26.6 °F 61% 29.96 in 10.0 mi SSE 19.6 mph 31.1 mph N/A   Overcast
2:35 AM 37.4 °F 26.6 °F 32.0 °F 81% 29.95 in 10.0 mi SSE 21.9 mph 33.4 mph N/A   Overcast
3:15 AM 35.6 °F 23.7 °F 32.0 °F 87% 29.93 in 10.0 mi SSE 24.2 mph 33.4 mph N/A   Light Drizzle
3:35 AM 35.6 °F 24.0 °F 33.8 °F 93% 29.92 in 10.0 mi SSE 23.0 mph 29.9 mph N/A   Drizzle
3:55 AM 35.6 °F 23.2 °F 33.8 °F 93% 29.90 in 4.0 mi SSE 26.5 mph 36.8 mph N/A Rain Light Rain
4:15 AM 35.6 °F 23.0 °F 33.8 °F 93% 29.90 in 10.0 mi SSE 27.6 mph 32.2 mph N/A   Light Drizzle
4:35 AM 35.6 °F 24.0 °F 33.8 °F 93% 29.90 in 10.0 mi SSE 23.0 mph 29.9 mph N/A Rain Light Rain
4:55 AM 35.6 °F 22.7 °F 33.8 °F 93% 29.88 in 10.0 mi SSE 28.8 mph 36.8 mph N/A   Light Drizzle
5:15 AM 35.6 °F 23.2 °F 33.8 °F 93% 29.87 in 7.0 mi SSE 26.5 mph 32.2 mph N/A   Light Drizzle
5:35 AM 35.6 °F 24.2 °F 33.8 °F 93% 29.89 in 10.0 mi SSE 21.9 mph 28.8 mph N/A   Overcast
6:15 AM 35.6 °F 24.5 °F 33.8 °F 93% 29.90 in 4.0 mi SSE 20.7 mph 29.9 mph N/A   Overcast
6:35 AM 35.6 °F 23.4 °F 33.8 °F 93% 29.90 in 3.0 mi SSE 25.3 mph 32.2 mph N/A   Overcast
6:55 AM 35.6 °F 23.2 °F 33.8 °F 93% 29.89 in 5.0 mi SSE 26.5 mph 33.4 mph N/A   Overcast
7:15 AM 35.6 °F 23.0 °F 33.8 °F 93% 29.88 in 1.0 mi SSE 27.6 mph 33.4 mph N/A   Overcast
7:35 AM 35.6 °F 23.4 °F 33.8 °F 93% 29.89 in 0.2 mi SSE 25.3 mph 34.5 mph N/A Fog Fog
7:55 AM 35.6 °F 24.2 °F 33.8 °F 93% 29.90 in 0.8 mi SSE 21.9 mph 31.1 mph N/A   Overcast
8:15 AM 35.6 °F 25.2 °F 33.8 °F 93% 29.91 in 10.0 mi SSE 18.4 mph 29.9 mph N/A   Overcast
8:35 AM 35.6 °F 25.9 °F 33.8 °F 93% 29.91 in 7.0 mi SSE 16.1 mph 23.0 mph N/A   Overcast
9:15 AM 35.6 °F 23.4 °F 33.8 °F 93% 29.90 in 0.2 mi SSE 25.3 mph 29.9 mph N/A Fog Fog
9:35 AM 35.6 °F 24.2 °F 33.8 °F 93% 29.90 in 0.2 mi SSE 21.9 mph 31.1 mph N/A Rain Light Rain
9:55 AM 35.6 °F 23.2 °F 33.8 °F 93% 29.90 in 2.0 mi SSE 26.5 mph 32.2 mph N/A   Overcast
10:15 AM 35.6 °F 22.7 °F 33.8 °F 93% 29.89 in 4.0 mi SSE 28.8 mph 38.0 mph N/A   Overcast
10:35 AM 33.8 °F 20.3 °F 33.8 °F 100% 29.87 in 2.5 mi SSE 28.8 mph 35.7 mph N/A   Overcast
10:55 AM 33.8 °F 20.3 °F 33.8 °F 100% 29.87 in 7.0 mi SSE 28.8 mph 42.6 mph N/A   Overcast
11:15 AM 35.6 °F 22.1 °F 33.8 °F 93% 29.86 in 7.0 mi SSE 32.2 mph 41.4 mph N/A   Overcast
11:35 AM 35.6 °F 21.0 °F 33.8 °F 93% 29.85 in 10.0 mi SSE 39.1 mph 46.0 mph N/A   Overcast
11:55 AM 35.6 °F 21.7 °F 33.8 °F 93% 29.85 in 10.0 mi SSE 34.5 mph 46.0 mph N/A   Overcast
12:15 PM 35.6 °F 22.3 °F 33.8 °F 93% 29.84 in 10.0 mi SSE 31.1 mph 43.7 mph N/A   Overcast
12:35 PM 35.6 °F 21.9 °F 33.8 °F 93% 29.83 in 10.0 mi SSE 33.4 mph 43.7 mph N/A Thunderstorm Thunderstorm
12:55 PM 35.6 °F 21.1 °F 32.0 °F 87% 29.82 in 10.0 mi SSE 38.0 mph 48.3 mph N/A   Overcast
1:15 PM 35.6 °F 22.7 °F 32.0 °F 87% 29.80 in 10.0 mi SSE 28.8 mph 42.6 mph N/A   Overcast
1:35 PM 35.6 °F 22.7 °F 32.0 °F 87% 29.79 in 10.0 mi SSE 28.8 mph 39.1 mph N/A   Light Drizzle
1:55 PM 35.6 °F 22.5 °F 32.0 °F 87% 29.78 in 7.0 mi SSE 29.9 mph 40.3 mph N/A Rain , Thunderstorm Light Thunderstorms and Rain
2:15 PM 33.8 °F 19.9 °F 32.0 °F 93% 29.77 in 0.8 mi SSE 31.1 mph 41.4 mph N/A   Overcast
2:55 PM 33.8 °F 19.9 °F 32.0 °F 93% 29.75 in 0.8 mi SSE 31.1 mph 41.4 mph N/A   Overcast
3:15 PM 33.8 °F 20.8 °F 32.0 °F 93% 29.75 in 0.2 mi SE 26.5 mph 35.7 mph N/A Fog Fog
3:35 PM 33.8 °F 20.1 °F 32.0 °F 93% 29.74 in 0.2 mi SSE 29.9 mph 39.1 mph N/A Snow Light Snow
3:55 PM 32.0 °F 17.4 °F 32.0 °F 100% 29.74 in 0.2 mi SE 31.1 mph 40.3 mph N/A Snow Snow
4:15 PM 32.0 °F 17.9 °F 32.0 °F 100% 29.74 in 0.2 mi SE 28.8 mph 36.8 mph N/A Rain Light Rain
4:35 PM 32.0 °F 18.9 °F 32.0 °F 100% 29.74 in 1.8 mi SE 24.2 mph 33.4 mph N/A   Overcast
4:55 PM 32.0 °F 19.5 °F 32.0 °F 100% 29.75 in 1.8 mi SE 21.9 mph 31.1 mph N/A   Overcast
5:15 PM 32.0 °F 18.9 °F 32.0 °F 100% 29.75 in 2.0 mi SE 24.2 mph 28.8 mph N/A   Overcast
5:35 PM 32.0 °F 19.8 °F 32.0 °F 100% 29.75 in 1.8 mi SE 20.7 mph 28.8 mph N/A   Overcast
5:55 PM 32.0 °F 18.9 °F 32.0 °F 100% 29.74 in 1.8 mi SE 24.2 mph 28.8 mph N/A   Overcast
6:15 PM 32.0 °F 18.9 °F 32.0 °F 100% 29.74 in 1.8 mi SE 24.2 mph 29.9 mph N/A   Overcast
6:35 PM 32.0 °F 20.8 °F 32.0 °F 100% 29.75 in 1.8 mi SE 17.3 mph 32.2 mph N/A Rain Light Rain
6:55 PM 32.0 °F 19.8 °F 32.0 °F 100% 29.74 in 2.5 mi SE 20.7 mph 28.8 mph N/A Snow Light Snow
7:15 PM 32.0 °F 19.2 °F 32.0 °F 100% 29.75 in 2.5 mi SE 23.0 mph 27.6 mph N/A Snow Light Snow
7:35 PM 32.0 °F 18.4 °F 32.0 °F 100% 29.74 in 2.0 mi SE 26.5 mph 32.2 mph N/A Snow Light Snow
7:55 PM 32.0 °F 20.5 °F 32.0 °F 100% 29.75 in 2.0 mi SE 18.4 mph 27.6 mph N/A Rain Light Rain
8:15 PM 32.0 °F 19.2 °F 32.0 °F 100% 29.74 in 2.5 mi SE 23.0 mph 27.6 mph N/A Snow Light Snow
8:35 PM 32.0 °F 19.5 °F 32.0 °F 100% 29.73 in 2.0 mi SE 21.9 mph 29.9 mph N/A Snow Light Snow
9:15 PM 32.0 °F 18.6 °F 32.0 °F 100% 29.71 in 2.0 mi SE 25.3 mph 35.7 mph N/A   Overcast
9:35 PM 32.0 °F 17.9 °F 32.0 °F 100% 29.71 in 2.0 mi SE 28.8 mph 35.7 mph N/A   Overcast
9:55 PM 32.0 °F 18.4 °F 32.0 °F 100% 29.73 in 2.0 mi SE 26.5 mph 33.4 mph N/A   Overcast
10:15 PM 32.0 °F 18.1 °F 32.0 °F 100% 29.72 in 1.5 mi SE 27.6 mph 33.4 mph N/A   Overcast
10:35 PM 32.0 °F 18.1 °F 32.0 °F 100% 29.72 in 1.0 mi SE 27.6 mph 32.2 mph N/A   Overcast
10:55 PM 32.0 °F 17.4 °F 32.0 °F 100% 29.71 in 1.5 mi SE 31.1 mph 36.8 mph N/A   Overcast
11:15 PM 32.0 °F 18.9 °F 32.0 °F 100% 29.72 in 2.0 mi SE 24.2 mph 31.1 mph N/A   Overcast
11:35 PM 32.0 °F 22.5 °F 32.0 °F 100% 29.73 in 1.8 mi East 12.7 mph 18.4 mph N/A   Overcast
11:55 PM 32.0 °F 22.1 °F 30.2 °F 93% 29.71 in 1.5 mi East 13.8 mph - N/A Thunderstorm Overcast